This is the latest recevied weather packets stored in our database for station/object BV1EV-2. If no packets are shown the sender has not sent any weather packets the latest 10 day(s).
| Time | Temp. | Humidity | Pressure | Rain* | Wind** | Luminosity | Snow |
|---|---|---|---|---|---|---|---|
| 1777841868 | 28.33° C | 56% | 1014.6 hPa | - | - | - | - |
| 1777840668 | 28.33° C | 56% | 1014.4 hPa | - | - | - | - |
| 1777839467 | 28.33° C | 56% | 1014.3 hPa | - | - | - | - |
| 1777838267 | 27.78° C | 55% | 1014.1 hPa | - | - | - | - |
| 1777837067 | 27.78° C | 54% | 1013.8 hPa | - | - | - | - |
| 1777835868 | 27.22° C | 53% | 1013.7 hPa | - | - | - | - |
| 1777834668 | 27.22° C | 52% | 1013.6 hPa | - | - | - | - |
| 1777833468 | 27.22° C | 49% | 1013.4 hPa | - | - | - | - |
| 1777832267 | 27.78° C | 44% | 1013.4 hPa | - | - | - | - |
| 1777831067 | 28.33° C | 40% | 1013.3 hPa | - | - | - | - |
| 1777829867 | 28.89° C | 40% | 1013.4 hPa | - | - | - | - |
| 1777828667 | 28.33° C | 44% | 1013.1 hPa | - | - | - | - |
| 1777827468 | 28.33° C | 45% | 1013.3 hPa | - | - | - | - |
| 1777826268 | 29.44° C | 46% | 1013 hPa | - | - | - | - |
| 1777825068 | 30° C | 45% | 1012.7 hPa | - | - | - | - |
| 1777823868 | 31.67° C | 45% | 1012.8 hPa | - | - | - | - |
| 1777822668 | 32.22° C | 51% | 1012.5 hPa | - | - | - | - |
| 1777821468 | 32.22° C | 52% | 1012.1 hPa | - | - | - | - |
| 1777820268 | 32.22° C | 52% | 1011.9 hPa | - | - | - | - |
| 1777819068 | 32.22° C | 52% | 1011.9 hPa | - | - | - | - |
| 1777817867 | 32.22° C | 53% | 1011.4 hPa | - | - | - | - |
| 1777816667 | 32.22° C | 53% | 1011.1 hPa | - | - | - | - |
| 1777815468 | 32.22° C | 53% | 1010.9 hPa | - | - | - | - |
| 1777814268 | 32.22° C | 54% | 1010.7 hPa | - | - | - | - |
| 1777813068 | 31.67° C | 54% | 1010.4 hPa | - | - | - | - |
* Rain since midnight (hover to see other rain measurements)
** Current wind speed in m/s (hover to see current wind gust speed)